User: anonymous
Location: Unspecified
(0.0000°N, 0.0000°E)
Time: 15:29:27
(UTC+00:00)
Language:

USA 224 - Orbit

View from above orbital plane
View from above orbital plane
View from above satellite
View from above satellite

Ground track
Ground track

The orbit data is extracted from the following two-line orbital elements,

1 37348U 11002A   14203.03569396 0.00016000  00000-0  15025-3 0    06
2 37348  97.9142 315.2818 0515339  69.2537 290.7461 14.82054228    00
Epoch (UTC): 22 July 2014 00:51:23
Eccentricity: 0.0515339
inclination: 97.9142°
perigee height: 262 km
apogee height: 983 km
right ascension of ascending node: 315.2818°
argument of perigee: 69.2537°
revolutions per day: 14.82054228
mean anomaly at epoch: 290.7461°
orbit number at epoch: 0

The dashed part of the orbit path shows where the satellite is in the earth's shadow,  

DLR